星链-31330 (STARLINK-31330 )

导读 | 豆包AI

STARLINK-31330是美国SpaceX公司星链星座的一员,于北京时间2024年2月10日发射入轨。作为第二代低轨互联网星座的V2 Mini卫星,它运行在近地轨道,配备百Gbps激光星间链路与增强型相控阵天线,可提供高速低时延的卫星互联网服务,助力星链实现全球覆盖,强化极地网络覆盖与手机直连通信能力,支撑星链星座持续组网扩容。

基本信息
目录编号:
58951
目录名称:
STARLINK-31330
国际标识:
2024-027W
轨道中心:
EARTH
卫星名称:
星链-31330
卫星全名:
星链-31330 (STARLINK-31330 )
卫星状态:
在轨 (已飞行764 天)
发射日期:
2024-02-10 UTC
国别 :
美国 (US)
星等 :
--
轨道信息
数据来源 国际轨道数据 AOE轨道数据
星历时间 2026-03-15T05:18:51+0800
1天前
查看轨道信息
2026-03-15T01:00:00+0800
1天前
查看轨道信息
半长轴 6853.368km 6853.356km
偏心率 0.0001213 0.0001186
轨道倾角 53.159° 53.161°
近地点辐角 94.855° 95.181°
升交点赤经 282.693° 283.533°
平近点角 265.259° 354.128°
近地点 474.399km 474.406km
远地点 476.063km 476.032km
周期 94.106分钟 94.105分钟
每日圈数 15.301947 15.301989
详细信息
固有亮度:
5
最大亮度:
0.3
卫星平台:
Starlink v2.0 mini
覆盖范围:
全球
运营商:
太空探索技术公司
运营商所在国:
美国
制造商(研发单位):
太空探索技术公司
制造商所在国:
美国
使用方式:
暂无
卫星简介
星链(Starlink)计划是由太空探索技术公司(SpaceX)提出的一个巨型低轨卫星互联网星座项目,计划在2019年至2024年间在太空搭建由约1.2万颗卫星组成的“星链”网络,其中1584颗将部署在地球上空550千米处的近地轨道,并从2020年开始工作。该卫星仍在工作。
2D轨道图
3D轨道图
轨道高度分析图
轨道倾角分析图
轨道综合分析图
查看轨道综合分析图